Date String (YYYY-MM-DD hh:mm:ss) UTC,Instrument flags,Ambient pressure (hPa),Sample flow (lpm),Bypass flow (lpm),Sample temperature (°C),Ambient temperature (°C),ASC tube jacket temperature (°C),LED temperature (°C),Box temperature (°C),Sample RH (%),Span deviation,Mass concentration (μg/m³),Mass concentration (μg/m³),Mass concentration (μg/m³)
DateTimeUTC,F1_M11,P_M11,Q1_M11,Q2_M11,T1_M11,T2_M11,T3_M11,T4_M11,T5_M11,U1_M11,ZSPAN_M11,X0_M11,X2_M11,X1_M11
2022-01-27 02:00:00,,0825.5,5.01,0.00,22.3,21.5,00.0,31.5,23.9,09.6,0000.0,0009.80,0005.80,0005.38
2022-01-27 02:01:00,,0825.5,5.00,0.00,22.2,21.4,00.0,31.5,23.9,09.6,0000.0,0009.74,0005.79,0005.36
2022-01-27 02:02:00,,0825.5,4.99,0.00,22.2,21.4,00.0,31.4,23.9,09.5,0000.0,0009.75,0005.83,0005.38
2022-01-27 02:03:00,,0825.5,5.00,0.00,22.2,21.4,00.0,31.4,23.9,09.4,0000.0,0009.79,0005.84,0005.41
2022-01-27 02:04:00,,0825.5,5.00,0.00,22.2,21.5,00.0,31.4,23.9,09.1,0000.0,0009.55,0005.86,0005.42
2022-01-27 02:05:00,,0825.6,5.00,0.00,22.2,21.5,00.0,31.4,24.0,08.9,0000.0,0009.52,0005.88,0005.42
2022-01-27 02:06:00,,0825.6,4.99,0.00,22.2,21.5,00.0,31.4,24.0,08.5,0000.0,0009.73,0005.89,0005.40
2022-01-27 02:07:00,,0825.6,5.00,0.00,22.2,21.6,00.0,31.4,24.0,08.5,0000.0,0009.95,0005.94,0005.39
2022-01-27 02:08:00,,0825.6,5.00,0.00,22.3,21.6,00.0,31.4,24.0,08.6,0000.0,0009.59,0005.97,0005.40
2022-01-27 02:09:00,,0825.6,5.00,0.00,22.2,21.6,00.0,31.4,24.0,08.5,0000.0,0009.32,0005.98,0005.39
2022-01-27 02:10:00,,0825.7,5.00,0.00,22.3,21.6,00.0,31.3,24.0,08.5,0000.0,0009.78,0005.93,0005.33
2022-01-27 02:11:00,,0825.7,5.00,0.00,22.3,21.6,00.0,31.3,24.0,08.5,0000.0,0009.98,0005.87,0005.27
2022-01-27 02:12:00,,0825.7,5.00,0.00,22.3,21.6,00.0,31.3,24.0,08.5,0000.0,0009.95,0005.81,0005.20
2022-01-27 02:13:00,,0825.7,5.00,0.00,22.3,21.6,00.0,31.3,24.1,08.3,0000.0,0009.87,0005.71,0005.11
2022-01-27 02:14:00,,0825.7,5.00,0.00,22.3,21.7,00.0,31.3,24.1,08.4,0000.0,0009.91,0005.64,0005.03
2022-01-27 02:15:00,,0825.7,5.00,0.00,22.3,21.6,00.0,31.3,24.1,08.3,0000.0,0010.03,0005.56,0004.93
2022-01-27 02:16:00,,0825.6,5.00,0.00,22.3,21.6,00.0,31.3,24.0,08.2,0000.0,0009.97,0005.49,0004.85
2022-01-27 02:17:00,,0825.6,5.00,0.00,22.3,21.6,00.0,31.3,24.0,07.7,0000.0,0009.81,0005.36,0004.74
2022-01-27 02:18:00,,0825.7,5.00,0.00,22.3,21.6,00.0,31.3,24.0,07.5,0000.0,0009.38,0005.11,0004.57
2022-01-27 02:19:00,,0825.6,5.00,0.00,22.3,21.6,00.0,31.3,24.0,07.4,0000.0,0009.00,0004.87,0004.40
2022-01-27 02:20:00,,0825.7,5.00,0.00,22.3,21.6,00.0,31.3,24.0,07.3,0000.0,0008.73,0004.67,0004.24
2022-01-27 02:21:00,,0825.6,5.00,0.00,22.3,21.6,00.0,31.3,24.0,07.4,0000.0,0007.91,0004.50,0004.11
2022-01-27 02:22:00,,0825.5,4.99,0.00,22.3,21.6,00.0,31.3,24.0,07.5,0000.0,0007.62,0004.33,0003.97
2022-01-27 02:23:00,,0825.6,4.99,0.00,22.2,21.6,00.0,31.3,24.0,07.3,0000.0,0007.37,0004.17,0003.83
2022-01-27 02:24:00,,0825.6,4.99,0.00,22.3,21.6,00.0,31.3,24.0,07.1,0000.0,0007.04,0004.02,0003.71
2022-01-27 02:25:00,,0825.5,5.00,0.00,22.3,21.6,00.0,31.3,24.0,06.7,0000.0,0006.48,0003.87,0003.57
2022-01-27 02:26:00,,0825.5,5.00,0.00,22.2,21.6,00.0,31.3,24.0,06.6,0000.0,0005.79,0003.71,0003.45
2022-01-27 02:27:00,,0825.5,5.00,0.00,22.2,21.6,00.0,31.3,24.0,06.5,0000.0,0005.07,0003.53,0003.34
2022-01-27 02:28:00,,0825.6,5.01,0.00,22.2,21.6,00.0,31.3,24.0,06.6,0000.0,0004.61,0003.46,0003.29
2022-01-27 02:29:00,,0825.6,5.00,0.00,22.2,21.6,00.0,31.3,24.0,06.6,0000.0,0004.60,0003.46,0003.29
2022-01-27 02:30:00,,0825.6,5.00,0.00,22.2,21.6,00.0,31.2,24.0,06.6,0000.0,0004.60,0003.47,0003.29
2022-01-27 02:31:00,,0825.5,5.00,0.00,22.2,21.6,00.0,31.2,24.0,06.5,0000.0,0004.54,0003.45,0003.29
2022-01-27 02:32:00,,0825.6,5.00,0.00,22.2,21.6,00.0,31.2,24.0,06.3,0000.0,0004.55,0003.44,0003.27
2022-01-27 02:33:00,,0825.6,5.00,0.00,22.2,21.6,00.0,31.2,24.0,06.4,0000.0,0004.36,0003.42,0003.25
2022-01-27 02:34:00,,0825.6,5.00,0.00,22.2,21.6,00.0,31.2,24.0,06.3,0000.0,0004.20,0003.37,0003.21
2022-01-27 02:35:00,,0825.6,5.00,0.00,22.2,21.5,00.0,31.2,24.0,06.2,0000.0,0004.20,0003.35,0003.18
2022-01-27 02:36:00,,0825.6,5.00,0.00,22.2,21.5,00.0,31.2,23.9,06.2,0000.0,0004.22,0003.34,0003.18
2022-01-27 02:37:00,,0825.6,4.99,0.00,22.2,21.5,00.0,31.2,23.9,06.1,0000.0,0004.34,0003.35,0003.17
2022-01-27 02:38:00,,0825.6,5.00,0.00,22.2,21.5,00.0,31.2,23.9,06.4,0000.0,0004.41,0003.35,0003.16
2022-01-27 02:39:00,,0825.6,5.00,0.00,22.1,21.5,00.0,31.2,23.9,06.4,0000.0,0004.35,0003.34,0003.15
2022-01-27 02:40:00,,0825.5,5.01,0.00,22.1,21.4,00.0,31.2,23.9,06.5,0000.0,0004.33,0003.32,0003.14
2022-01-27 02:41:00,,0825.6,5.00,0.00,22.1,21.4,00.0,31.2,23.9,06.7,0000.0,0004.33,0003.33,0003.14
2022-01-27 02:42:00,,0825.6,5.00,0.00,22.1,21.4,00.0,31.2,23.8,06.4,0000.0,0004.25,0003.30,0003.12
2022-01-27 02:43:00,,0825.6,5.00,0.00,22.1,21.4,00.0,31.2,23.8,06.3,0000.0,0004.20,0003.29,0003.12
2022-01-27 02:44:00,,0825.5,5.00,0.00,22.1,21.4,00.0,31.2,23.8,06.5,0000.0,0004.17,0003.29,0003.13
2022-01-27 02:45:00,,0825.5,5.00,0.00,22.1,21.4,00.0,31.1,23.8,06.4,0000.0,0004.29,0003.32,0003.15
2022-01-27 02:46:00,,0825.6,5.00,0.00,22.1,21.4,00.0,31.1,23.8,06.6,0000.0,0004.37,0003.33,0003.16
2022-01-27 02:47:00,,0825.6,5.00,0.00,22.1,21.4,00.0,31.1,23.8,06.7,0000.0,0004.30,0003.32,0003.16
2022-01-27 02:48:00,,0825.6,5.00,0.00,22.1,21.4,00.0,31.1,23.8,07.1,0000.0,0004.30,0003.35,0003.21
2022-01-27 02:49:00,,0825.6,5.00,0.00,22.1,21.4,00.0,31.1,23.8,06.8,0000.0,0004.44,0003.41,0003.25
2022-01-27 02:50:00,,0825.6,4.99,0.00,22.1,21.7,00.0,31.1,23.9,06.6,0000.0,0004.59,0003.45,0003.28
2022-01-27 02:51:00,,0825.6,5.00,0.00,22.2,22.4,00.0,31.2,24.2,06.7,0000.0,0004.73,0003.50,0003.32
2022-01-27 02:52:00,,0825.6,5.00,0.00,22.4,23.0,00.0,31.2,24.4,06.6,0000.0,0004.76,0003.51,0003.34
2022-01-27 02:53:00,,0825.6,5.00,0.00,22.5,23.0,00.0,31.3,24.5,06.5,0000.0,0005.52,0003.53,0003.35
2022-01-27 02:54:00,,0825.5,4.99,0.00,22.5,22.8,00.0,31.3,24.4,07.1,0000.0,0006.33,0003.59,0003.41
2022-01-27 02:55:00,,0825.5,5.01,0.00,22.5,22.6,00.0,31.3,24.4,06.6,0000.0,0006.32,0003.59,0003.41
2022-01-27 02:56:00,,0825.6,4.99,0.00,22.5,22.5,00.0,31.3,24.4,06.8,0000.0,0006.28,0003.58,0003.40
2022-01-27 02:57:00,,0825.5,5.01,0.00,22.5,22.4,00.0,31.3,24.4,07.0,0000.0,0006.20,0003.59,0003.42
2022-01-27 02:58:00,,0825.5,5.00,0.00,22.5,22.3,00.0,31.4,24.3,06.9,0000.0,0006.17,0003.59,0003.42
2022-01-27 02:59:00,,0825.5,5.00,0.00,22.5,22.2,00.0,31.4,24.3,06.6,0000.0,0006.01,0003.53,0003.37
